Location: Castelnau
(43.6639°N, 0.8431°W)
Time: 16:58:30
(UTC+00:00)

Cosmos 2228 Rocket - Pass Details

Date: 13 January 2026
Orbit: 612 x 647 km, 82.5° (Epoch: 10 February)

Event Time Altitude Azimuth Distance (km) Brightness Sun altitude
Rises 06:40:08 0° 354° (N) 2,902 6.2 -9.8°
Reaches altitude 10° 06:42:24 10° 358° (N) 1,987 5.4 -9.4°
Maximum altitude 06:46:46 62° 80° (E) 691 3.6 -8.7°
Drops below altitude 10° 06:51:04 10° 161° (SSE) 1,962 6.3 -8.0°
Sets 06:53:17 0° 165° (SSE) 2,861 7.1 -7.6°
